{"data":{"norad_id":66489,"epoch":"2026-05-24T18:20:22.294752Z","epoch_age_seconds":91924,"freshness":"FRESH","line1":"1 66489U 25263E   26144.76414693  .00014604  00000+0  53903-3 0  9995","line2":"2 66489  43.0019 281.0617 0001785 261.3596  98.7054 15.27587782 30536","mean_motion":15.27587782,"eccentricity":0.0001785,"inclination_deg":43.0019,"raan_deg":281.0617,"arg_perigee_deg":261.3596,"mean_anomaly_deg":98.7054,"bstar":0.00053903,"rev_number":3053,"period_min":94.266268489964,"perigee_km":481.80107647228,"apogee_km":484.25051158975,"semimajor_km":6861.162794031,"source":"CELESTRAK","updated_at":"2026-05-25T13:38:21.242506Z"}}